SL-16 DEB, 22350

Orbit data source: Space-Track

SL-16 DEB, 22350 is space debris in LEO originally from a launch on Fri, 25 Dec 1992 UTC launched from the Tyuratam Missile And Space Complex (TTMTR). Debris objects in space refer to the collection of defunct objects orbiting the Earth. Examples of debris include non-operational satellites, rocket bodies, and fragments generated from explosions, collisions, or faulty payload assembly.

Loading next visibility...
Identifier
22350, 1992-093AP
Orbit
LEO
Country
Flag of CISCIS
Related business
Manufacturer
Unknown
Mission
Spacecraft
Bus & Motor
Unknown
Mass
Unknown
Launch date (UTC)
1992-12-25 (33 years ago)
Launch vehicle
Unknown
Launch site
Tyuratam Missile And Space Complex (TTMTR)
Object type
Payload
Rocket body
Debris
Shape & HBR
Unknown shape, 0.4 m
Radar Cross Section
Medium (>0.1 m² and <1 m²)

Expand to show TLE details & history
Last TLE update: 9 hours ago

TLE from 9 hours ago
0 SL-16 DEB
1 22350U 92093AP  25308.05350412  .00000317  00000-0  21673-3 0  9996
2 22350  70.9088 173.7004 0067170  53.3615  58.2544 14.06198975684277
Epoch: 2025-11-04T01:17Z
TLE epoch observation values (Epoch: 2025-11-04T01:17:02.755Z)
Latitude
61.09282°
Longitude
-107.67794°
Altitude
856.904 km
Speed
7.443 km/s
True Right ascension
21h 00m 31s
True Declination
60° 56' 57"
Sunlit
Object was in daylight at epoch
Visualization orbit readout
Latitude
Unknown
Longitude
Unknown
Altitude
Unknown
Speed
Unknown
Apparent Right ascension
Unknown
Apparent Declination
Unknown
Sunlit
N/A
Visualization observer readout
Local Sidereal Time
06:26:05
Azimuth
Unknown
Elevation
Unknown
Doppler factor
Unknown
Orbital elements
Apogee altitude
919.038 km
Perigee altitude
821.662 km
Semi-major axis
7,248.487 km
Eccentricity
0.00672
Inclination
70.9088°
RAAN
173.7004°
Arg. of periapsis
53.3615°
True anomaly
58.91185°
Mean anomaly
58.2544°
Eccentric anomaly
58.58283°
Mean motion
3.517 °/min
Orbital period
102.36 mins
BSTAR
0.00021673
Loading maneuver chart data...
Computing Atmospheric mass density...
Loading historical data...
Loading historical data...
Loading historical data...
Loading historical data...
Loading historical data...
Loading historical data...
Loading historical data...

Documentation

Showing up to 5 results
|